This demonstration page uses our WeatherBlox Daily Observations layout. Learn more.

Left ArrowRight Arrow

44.31136, -96.79839

Hourly Observations for August 3, 2018

Temp ( °F °C ) Dew Point ( °F °C ) Humidity (%) Winds ( mph kmh ) Pressure ( in mb ) Visibility ( mi km ) Precip ( " mm )
12:56 am 00:56 Clear 67 19.4 62 16.7 84 84 SSE 12 19 29.91 1013 10 16 0.00 0.00
1:56 am 01:56 Clear 67 19.4 63 17.2 87 87 SSE 13 20 29.89 1012 10 16 0.00 0.00
2:56 am 02:56 Clear 66 18.9 64 17.8 93 93 SSE 12 19 29.88 1012 10 16 0.00 0.00
3:56 am 03:56 Clear 66 18.9 64 17.8 93 93 SSE 9 15 29.88 1012 10 16 0.00 0.00
4:56 am 04:56 Clear 65 18.3 64 17.8 97 97 SSE 12 19 29.87 1012 10 16 0.00 0.00
5:56 am 05:56 Clear 65 18.3 64 17.8 97 97 SSE 10 17 29.86 1011 10 16 0.00 0.00
6:56 am 06:56 Sunny 66 18.9 64 17.8 93 93 SSE 10 17 29.86 1011 10 16 0.00 0.00
7:56 am 07:56 Sunny 69 20.6 65 18.3 87 87 S 12 19 29.85 1011 10 16 0.00 0.00
8:56 am 08:56 Sunny 74 23.3 66 18.9 76 76 S 15 24 29.85 1011 10 16 0.00 0.00
9:56 am 09:56 Sunny 78 25.6 68 20 71 71 S 13 20 29.85 1011 10 16 0.00 0.00
10:56 am 10:56 Sunny 81 27.2 68 20 65 65 S 15 24 29.84 1010 10 16 0.00 0.00
11:56 am 11:56 Sunny 83 28.3 70 21.1 65 65 S 14 22 29.83 1010 10 16 0.00 0.00
12:56 pm 12:56 Sunny 86 30 71 21.7 61 61 S 15 24 29.82 1010 10 16 0.00 0.00
1:56 pm 13:56 Sunny 86 30 71 21.7 61 61 S 16 26 29.80 1009 10 16 0.00 0.00
2:56 pm 14:56 Sunny 87 30.6 71 21.7 59 59 S 16 26 29.79 1009 10 16 0.00 0.00
3:56 pm 15:56 Sunny 84 28.9 71 21.7 65 65 S 18 30 29.79 1009 10 16 0.00 0.00
4:56 pm 16:56 Sunny 86 30 72 22.2 63 63 SW 17 28 29.80 1009 10 16 0.00 0.00
5:56 pm 17:56 Sunny 83 28.3 72 22.2 70 70 SSW 9 15 29.82 1010 10 16 0.00 0.00
6:56 pm 18:56 Mostly Cloudy with Light Rain 80 26.7 72 22.2 76 76 SSW 6 9 29.83 1010 10 16 0.00 0.03
7:56 pm 19:56 Mostly Cloudy 79 26.1 72 22.2 79 79 SSE 13 20 29.83 1010 10 16 0.00 0.03
8:56 pm 20:56 Clear 78 25.6 71 21.7 79 79 S 13 20 29.81 1010 10 16 0.00 0.03
9:56 pm 21:56 Mostly Cloudy with Light Rain 79 26.1 71 21.7 77 77 S 16 26 29.82 1010 10 16 0.00 0.03
10:56 pm 22:56 Mostly Clear 78 25.6 71 21.7 79 79 S 10 17 29.81 1010 10 16 0.00 0.03
11:56 pm 23:56 Clear 78 25.6 69 20.6 74 74 SSW 16 26 29.81 1009 10 16 0.00 0.00

Powered by AerisWeather